Location: Ikejouine
(32.5142°N, 5.4699°W)
Time: 19:50:34
(UTC+00:00)

SL-8 Rocket - Pass Details

Date: 09 April 2020
Orbit: 957 x 990 km, 82.9° (Epoch: 28 May)

Event Time Altitude Azimuth Distance (km) Brightness Sun altitude
Rises 21:10:50 0° 352° (N) 3,706 7.6 -28.9°
Reaches altitude 10° 21:13:21 10° 352° (N) 2,755 6.8 -29.3°
Maximum altitude 21:19:41 82° 266° (W) 1,004 4.0 -30.4°
Enters shadow 21:19:52 81° 238° (WSW) 1,006 3.9 -30.5°
